{"data":{"norad_id":42807,"epoch":"2026-05-25T01:56:06.934848Z","epoch_age_seconds":58230,"freshness":"FRESH","line1":"1 42807U 17039E   26145.08063582  .00000044  00000+0  85441-5 0  9995","line2":"2 42807  86.3985   3.2957 0002233  86.7802 273.3649 14.34217856466639","mean_motion":14.34217856,"eccentricity":0.0002233,"inclination_deg":86.3985,"raan_deg":3.2957,"arg_perigee_deg":86.7802,"mean_anomaly_deg":273.3649,"bstar":8.5441e-6,"rev_number":46663,"period_min":100.40315660385,"perigee_km":776.06891078434,"apogee_km":779.26469276221,"semimajor_km":7155.8038017733,"source":"CELESTRAK","updated_at":"2026-05-25T13:38:14.800515Z"}}